sat.trackr.live / text

‹ back to catalog

STARLINK-35164

NORAD 65519 · 2025-198AD

PAYLOAD ACTIVE UNKNOWN

§ Identity

Operator
Country
US
Launch date
2025-09-05
Launch site
AFETR
Launch vehicle
Mass (kg)
RCS (m²)

Purposes: comms

External: N2YO · Heavens-Above · Gunter

§ Orbital elements

Epoch: 2026-05-24T21:07:47.239104Z

Period
93.85 min
Inclination
53.1589°
Eccentricity
0.0001137
Mean motion
15.34409767 rev/d
Perigee alt
461.9 km
Apogee alt
463.5 km
Semi-major
6,840.8 km
B*
8.3124e-4
RAAN
276.4942°
Arg perigee
69.4441°
Mean anomaly
290.6684°
Rev number
4,029

§ Raw data

STARLINK-351641 65519U 25198AD  26144.88040786  .00027821  00000+0  83124-3 0  99992 65519  53.1589 276.4942 0001137  69.4441 290.6684 15.34409767 40299

JSON: /api/v1/satellites/65519 · /tle

For live sub-satellite position, see the globe view (requires WebGL).

§ Visibility from observer

Set your observer location to see the next 7 days of passes ≥ 10°. The values pass through the URL so the page stays shareable.

No JS? Fill the form by hand. The geolocation button needs JavaScript.